Location: Schommer Observatory
(40.5200°N, 74.4500°W)
Time: 18:58:50
(UTC-04:00)

Envisat - Visible Passes

Search period start: 23 August 2019 00:00
Search period end: 02 September 2019 00:00
Orbit: 764 x 766 km, 98.1° (Epoch: 23 August)

Date Brightness Start Highest point End Pass type
(mag) Time Alt. Az. Time Alt. Az. Time Alt. Az.
24 Aug 5.8 20:27:45 10° SW 20:31:05 17° W 20:34:26 10° NW visible
27 Aug 5.7 20:15:49 10° SW 20:19:44 22° W 20:23:39 10° NW visible
29 Aug 6.1 20:43:30 10° WSW 20:45:31 12° W 20:47:32 10° WNW visible
30 Aug 5.3 20:04:04 10° SSW 20:08:24 28° W 20:12:45 10° NW visible
01 Sep 5.9 20:31:06 10° SW 20:34:08 16° W 20:37:12 10° NW visible
